sat.trackr.live / text

‹ back to catalog

STARLINK-34196

NORAD 65324 · 2025-189B

PAYLOAD ACTIVE UNKNOWN

§ Identity

Operator
Country
US
Launch date
2025-08-27
Launch site
AFETR
Launch vehicle
Mass (kg)
RCS (m²)

Purposes: comms

External: N2YO · Heavens-Above · Gunter

§ Orbital elements

Epoch: 2026-09-20T20:47:51.007776Z

Period
94.01 min
Inclination
53.1621°
Eccentricity
0.0001656
Mean motion
15.31722424 rev/d
Perigee alt
469.5 km
Apogee alt
471.8 km
Semi-major
6,848.8 km
B*
5.2068e-4
RAAN
18.4385°
Arg perigee
135.0063°
Mean anomaly
225.1073°
Rev number
6,096

§ Raw data

STARLINK-341961 65324U 25189B   26263.86656259  .00015838  00000+0  52068-3 0  99992 65324  53.1621  18.4385 0001656 135.0063 225.1073 15.31722424 60967

JSON: /api/v1/satellites/65324 · /tle

For live sub-satellite position, see the globe view (requires WebGL).

§ Visibility from observer

Set your observer location to see the next 7 days of passes ≥ 10°. The values pass through the URL so the page stays shareable.

No JS? Fill the form by hand. The geolocation button needs JavaScript.